When you browse on this site, cookies collect data to enhance your experience and personalize the content and advertising you see.
Visit our Privacy Policy to learn more. By continuing to use the site, you agree to this use of cookies and data.
  • In Hungary
  • List of Countries
  • For 7 days
  • Water Temperature
  • Weather Map
  • News
  • Weather Widgets
  • user-avatar
    Login

    Hourly Weather Splavnuha

    Today, 14 October, Monday

    Time Temperature Precipitation Wind Pressure Humidity
    00:00 +13°C° 0.2 mm 6 mps 745 mmHg 80%
    01:00 +13°C° 0.1 mm 5 mps 745 mmHg 80%
    02:00 +12°C° 0.1 mm 4 mps 746 mmHg 81%
    03:00 +12°C° 0 mm 4 mps 746 mmHg 84%
    04:00 +11°C° 0 mm 4 mps 746 mmHg 86%
    05:00 +11°C° 0 mm 4 mps 746 mmHg 89%
    06:00 +11°C° 0 mm 3 mps 746 mmHg 91%
    07:00 +12°C° 0 mm 4 mps 747 mmHg 86%
    08:00 +12°C° 0 mm 5 mps 748 mmHg 82%
    09:00 +13°C° 0 mm 6 mps 748 mmHg 75%
    10:00 +14°C° 0 mm 6 mps 748 mmHg 69%
    11:00 +14°C° 0 mm 6 mps 748 mmHg 64%
    12:00 +15°C° 0 mm 6 mps 749 mmHg 58%
    13:00 +15°C° 0 mm 6 mps 749 mmHg 58%
    14:00 +15°C° 0 mm 5 mps 749 mmHg 58%
    15:00 +16°C° 0 mm 5 mps 749 mmHg 59%
    16:00 +15°C° 0 mm 4 mps 749 mmHg 67%
    17:00 +14°C° 0 mm 4 mps 749 mmHg 75%
    18:00 +13°C° 0 mm 3 mps 749 mmHg 82%
    19:00 +13°C° 0 mm 3 mps 748 mmHg 86%
    20:00 +12°C° 0 mm 3 mps 748 mmHg 89%
    21:00 +12°C° 0 mm 3 mps 748 mmHg 92%
    22:00 +12°C° 0 mm 4 mps 748 mmHg 91%
    23:00 +13°C° 0 mm 5 mps 747 mmHg 89%

    Tomorrow, 15 October, Tuesday

    Time Temperature Precipitation Wind Pressure Humidity
    00:00 +13°C° 0 mm 6 mps 747 mmHg 87%
    01:00 +13°C° 0 mm 6 mps 746 mmHg 83%
    02:00 +13°C° 0 mm 6 mps 746 mmHg 79%
    03:00 +12°C° 0 mm 7 mps 746 mmHg 75%
    04:00 +12°C° 0 mm 7 mps 745 mmHg 73%
    05:00 +12°C° 0 mm 7 mps 745 mmHg 72%
    06:00 +12°C° 0 mm 8 mps 745 mmHg 71%
    07:00 +13°C° 0 mm 8 mps 745 mmHg 68%
    08:00 +15°C° 0 mm 8 mps 745 mmHg 64%
    09:00 +15°C° 0 mm 9 mps 745 mmHg 60%
    10:00 +17°C° 0 mm 9 mps 745 mmHg 57%
    11:00 +18°C° 0 mm 9 mps 745 mmHg 54%
    12:00 +20°C° 0 mm 8 mps 744 mmHg 51%
    13:00 +20°C° 0 mm 8 mps 745 mmHg 52%
    14:00 +20°C° 0 mm 8 mps 745 mmHg 54%
    15:00 +20°C° 0 mm 8 mps 745 mmHg 55%
    16:00 +19°C° 0 mm 6 mps 745 mmHg 61%
    17:00 +16°C° 0 mm 5 mps 745 mmHg 67%
    18:00 +15°C° 0 mm 4 mps 745 mmHg 73%
    19:00 +14°C° 0 mm 4 mps 746 mmHg 71%
    20:00 +13°C° 0 mm 3 mps 746 mmHg 70%
    21:00 +13°C° 0 mm 3 mps 747 mmHg 68%
    22:00 +12°C° 0 mm 3 mps 747 mmHg 73%
    23:00 +11°C° 0 mm 3 mps 748 mmHg 78%

    Day after tomorrow, 16 October, Wednesday

    Time Temperature Precipitation Wind Pressure Humidity
    00:00 +10°C° 0 mm 3 mps 748 mmHg 83%
    01:00 +10°C° 0 mm 3 mps 748 mmHg 85%
    02:00 +9°C° 0 mm 3 mps 749 mmHg 88%
    03:00 +8°C° 0 mm 3 mps 750 mmHg 90%
    04:00 +8°C° 0 mm 3 mps 750 mmHg 90%
    05:00 +7°C° 0 mm 3 mps 750 mmHg 91%
    06:00 +6°C° 0 mm 2 mps 751 mmHg 91%
    07:00 +7°C° 0 mm 3 mps 751 mmHg 85%
    08:00 +7°C° 0 mm 3 mps 752 mmHg 78%
    09:00 +7°C° 0 mm 4 mps 752 mmHg 72%
    10:00 +9°C° 0 mm 3 mps 752 mmHg 65%
    11:00 +9°C° 0 mm 3 mps 753 mmHg 58%
    12:00 +10°C° 0 mm 3 mps 753 mmHg 51%
    13:00 +10°C° 0 mm 3 mps 753 mmHg 48%
    14:00 +10°C° 0 mm 3 mps 753 mmHg 45%
    15:00 +10°C° 0 mm 3 mps 753 mmHg 43%
    16:00 +9°C° 0 mm 3 mps 753 mmHg 48%
    17:00 +8°C° 0 mm 3 mps 753 mmHg 53%
    18:00 +7°C° 0 mm 3 mps 753 mmHg 58%
    19:00 +5°C° 0 mm 3 mps 753 mmHg 58%
    20:00 +5°C° 0 mm 3 mps 754 mmHg 59%
    21:00 +5°C° 0 mm 3 mps 754 mmHg 59%
    22:00 +4°C° 0 mm 3 mps 754 mmHg 61%
    23:00 +4°C° 0 mm 3 mps 754 mmHg 63%

    17 October, Thursday

    Time Temperature Precipitation Wind Pressure Humidity
    00:00 +4°C° 0 mm 3 mps 754 mmHg 65%
    01:00 +4°C° 0 mm 2 mps 754 mmHg 66%
    02:00 +4°C° 0 mm 2 mps 754 mmHg 67%
    03:00 +4°C° 0 mm 2 mps 754 mmHg 68%
    04:00 +4°C° 0 mm 2 mps 754 mmHg 69%
    05:00 +4°C° 0 mm 2 mps 753 mmHg 70%
    06:00 +3°C° 0 mm 2 mps 753 mmHg 71%
    07:00 +4°C° 0 mm 3 mps 753 mmHg 66%
    08:00 +5°C° 0 mm 3 mps 753 mmHg 61%
    09:00 +7°C° 0 mm 3 mps 753 mmHg 57%
    10:00 +7°C° 0 mm 4 mps 753 mmHg 53%
    11:00 +10°C° 0 mm 4 mps 753 mmHg 49%
    12:00 +11°C° 0 mm 4 mps 752 mmHg 45%
    13:00 +11°C° 0 mm 4 mps 752 mmHg 44%
    14:00 +12°C° 0 mm 4 mps 751 mmHg 43%
    15:00 +12°C° 0 mm 5 mps 751 mmHg 42%
    16:00 +11°C° 0 mm 4 mps 751 mmHg 45%
    17:00 +10°C° 0 mm 4 mps 750 mmHg 49%
    18:00 +9°C° 0 mm 3 mps 750 mmHg 53%
    19:00 +8°C° 0 mm 4 mps 750 mmHg 56%
    20:00 +8°C° 0 mm 4 mps 749 mmHg 58%
    21:00 +7°C° 0 mm 4 mps 749 mmHg 61%
    22:00 +7°C° 0 mm 4 mps 749 mmHg 64%
    23:00 +7°C° 0 mm 4 mps 748 mmHg 66%

    18 October, Friday

    Time Temperature Precipitation Wind Pressure Humidity
    00:00 +7°C° 0 mm 4 mps 748 mmHg 69%
    01:00 +7°C° 0 mm 4 mps 748 mmHg 72%
    02:00 +7°C° 0 mm 4 mps 748 mmHg 75%
    03:00 +7°C° 0 mm 4 mps 747 mmHg 77%
    04:00 +8°C° 0 mm 3 mps 747 mmHg 80%
    05:00 +7°C° 0 mm 3 mps 747 mmHg 83%
    06:00 +7°C° 0 mm 3 mps 747 mmHg 85%
    07:00 +8°C° 0 mm 3 mps 746 mmHg 81%
    08:00 +10°C° 0 mm 3 mps 746 mmHg 77%
    09:00 +11°C° 0 mm 3 mps 746 mmHg 72%
    10:00 +12°C° 0 mm 3 mps 746 mmHg 68%
    11:00 +14°C° 0 mm 4 mps 746 mmHg 64%
    12:00 +15°C° 0 mm 4 mps 746 mmHg 60%
    13:00 +17°C° 0 mm 3 mps 745 mmHg 59%
    14:00 +17°C° 0 mm 3 mps 745 mmHg 57%
    15:00 +18°C° 0 mm 3 mps 745 mmHg 56%
    16:00 +16°C° 0 mm 2 mps 745 mmHg 61%
    17:00 +15°C° 0 mm 2 mps 745 mmHg 67%
    18:00 +14°C° 0 mm 1 mps 745 mmHg 72%
    19:00 +13°C° 0 mm 2 mps 746 mmHg 75%
    20:00 +11°C° 0 mm 3 mps 746 mmHg 78%
    21:00 +10°C° 0 mm 5 mps 746 mmHg 80%
    22:00 +8°C° 0 mm 6 mps 747 mmHg 81%
    23:00 +7°C° 0 mm 6 mps 747 mmHg 81%

    19 October, Saturday

    Time Temperature Precipitation Wind Pressure Humidity
    00:00 +4°C° 0 mm 7 mps 748 mmHg 81%
    01:00 +4°C° 0 mm 7 mps 748 mmHg 80%
    02:00 +4°C° 0 mm 7 mps 749 mmHg 79%
    03:00 +3°C° 0 mm 7 mps 749 mmHg 78%
    04:00 +3°C° 0 mm 7 mps 750 mmHg 78%
    05:00 +3°C° 0 mm 7 mps 750 mmHg 79%
    06:00 +2°C° 0 mm 7 mps 751 mmHg 79%
    07:00 +3°C° 0 mm 7 mps 751 mmHg 76%
    08:00 +3°C° 0 mm 7 mps 752 mmHg 72%
    09:00 +3°C° 0 mm 7 mps 752 mmHg 69%
    10:00 +4°C° 0 mm 6 mps 752 mmHg 66%
    11:00 +4°C° 0 mm 6 mps 753 mmHg 63%
    12:00 +5°C° 0 mm 6 mps 753 mmHg 60%
    13:00 +5°C° 0 mm 6 mps 753 mmHg 57%
    14:00 +6°C° 0 mm 5 mps 753 mmHg 55%
    15:00 +6°C° 0 mm 5 mps 753 mmHg 53%
    16:00 +6°C° 0 mm 5 mps 753 mmHg 52%
    17:00 +6°C° 0 mm 5 mps 753 mmHg 51%
    18:00 +6°C° 0 mm 5 mps 753 mmHg 51%
    19:00 +6°C° 0 mm 5 mps 754 mmHg 51%
    20:00 +6°C° 0 mm 5 mps 754 mmHg 51%
    21:00 +6°C° 0 mm 5 mps 754 mmHg 51%
    22:00 +6°C° 0 mm 5 mps 754 mmHg 51%
    23:00 +6°C° 0 mm 4 mps 754 mmHg 52%
    Show more